Regional Weather Roundup
Issued by NWS Sioux Falls, SD

Home | Current Version | Previous Version | Text Only | Print | Product List | Glossary Off
Versions: 1 2 3 4 5 6 7 8 9 10 11 12 13 14 15 16 17 18 19 20 21 22 23 24 25 26 27 28 29 30 31 32 33 34 35 36 37 38 39 40 41 42 43 44 45 46 47 48 49 50

000
ASUS43 KFSD 191310
RWRFSD

WEATHER ROUNDUP FOR SE SOUTH DAKOTA/SW MINNESOTA/NW IOWA
NATIONAL WEATHER SERVICE SIOUX FALLS SD
800 AM CDT SAT AUG 19 2017

NOTE: "FAIR" INDICATES FEW OR NO CLOUDS BELOW 12,000 FEET WITH NO
SIGNIFICANT WEATHER AND OR OBSTRUCTIONS TO VISIBILITY.


SDZ038>040-050-052>070-191400-
SOUTHEAST SOUTH DAKOTA

CITY           SKY/WX    TMP DP  RH WIND       PRES   REMARKS
BROOKINGS      SUNNY     56  55  97 CALM      29.98R
CHAMBERLAIN    SUNNY     60  59  96 E6        29.92F
HURON          SUNNY     58  56  93 SE6       29.93S
MADISON        FAIR      54  54 100 CALM      29.98R
MITCHELL       SUNNY     58  57  97 SE3       29.95S
SIOUX FALLS    SUNNY     60  59  96 CALM      29.98R
WINNER         FAIR      66  55  67 S13       29.92S
YANKTON        SUNNY     57  56  96 SE3       29.98S
$$

MNZ071-072-080-081-089-090-097-098-191400-
SOUTHWEST MINNESOTA

CITY           SKY/WX    TMP DP  RH WIND       PRES   REMARKS
FAIRMONT       FOG       57  57 100 SE3       29.98S VSB 1/4
JACKSON        FOG       54  54 100 CALM      29.99S VSB<1/4
LUVERNE        FOG       57  55  94 CALM      29.99S VSB<1/4
MARSHALL       SUNNY     60  58  92 S3        29.97R
MONTEVIDEO     SUNNY     61  61 100 CALM      29.95S
PIPESTONE      FOG       55  55 100 CALM      29.98S VSB 1/4
REDWOOD FALLS  FOG       56  55  97 S7        29.96R VSB 1/4
TRACY          FOG       59  59 100 SW5       29.98R VSB 3/4
WINDOM         FOG       55  54  94 CALM      29.98S VSB<1/4
WORTHINGTON    PTSUNNY   57  56  96 CALM      29.99S
$$

IAZ001>003-012>014-020>022-031-032-NEZ013-014-SDZ071-191400-
NORTHWEST IOWA

CITY           SKY/WX    TMP DP  RH WIND       PRES   REMARKS
CHEROKEE       FOG       57  57 100 CALM      29.99R VSB<1/4
DENISON        SUNNY     59  59 100 CALM      29.99S FOG
ESTHERVILLE    SUNNY     56  56 100 CALM      29.97F
LE MARS        FOG       57  57 100 N5        29.98S VSB<1/4
ORANGE CITY    FOG       59  59 100 CALM      29.99S VSB<1/4
SHELDON        FOG       55  55 100 CALM      29.98S VSB<1/4
SIOUX CITY     SUNNY     59  59 100 W3        29.98R
SPENCER        FOG       56  55  97 W3        29.99R VSB<1/4
STORM LAKE     FOG       57  57 100 N3        29.98S VSB<1/4
$$

ABBREVIATIONS USED IN REMARKS
   TC - TEMPERATURE IN CELSIUS
  WCI - WIND CHILL INDEX
   HX - HEAT INDEX
  VSB - VISIBILITY





USA.gov is the U.S. government's official web portal to all federal, state and local government web resources and services.